EXACTVIEW 9

Last updated on Sun Jan 07 2024 00:03:33 GMT+0000 (Coordinated Universal Time)

1 40936U 15052G 24006.07845669 .00002815 00000+0 28083-3 0 9991 2 40936 6.0026 75.6655 0010627 288.6842 71.2132 14.79620840447345
UTC large
Height (km)
Speed (km/s)
/
Latitude / Longitude
Inclination (degrees)
Orbital Period (minutes)
Azimuth
Elevation
Range (km)
Doppler Factor

Next 0 passes for location: London (51.5072 / 0.1276)

Sorry there are no passes over London.